TimeAKDT,TemperatureF,Dew PointF,Humidity,Sea Level PressureIn,VisibilityMPH,Wind Direction,Wind SpeedMPH,Gust SpeedMPH,PrecipitationIn,Events,Conditions,WindDirDegrees,DateUTC
12:07 AM,42.8,42.8,100,29.83,0.2,SSW,17.3,-,N/A,Fog-Rain,Light Rain Showers,200,2013-07-05 08:07:00
12:55 AM,-9999,-9999,N/A,29.83,0.2,South,16.1,-,N/A,Fog-Rain,Light Rain,190,2013-07-05 08:55:00
1:55 AM,-9999,-9999,N/A,29.84,0.2,SSW,17.3,-,N/A,Fog-Rain,Light Rain,200,2013-07-05 09:55:00
2:55 AM,-9999,-9999,N/A,29.86,0.2,SSW,15.0,-,N/A,Fog-Rain,Light Rain,200,2013-07-05 10:55:00
3:37 AM,41.0,41.0,100,29.86,0.5,SSW,11.5,-,N/A,Rain,Light Rain,200,2013-07-05 11:37:00
3:52 AM,41.0,41.0,100,29.85,0.2,SSW,13.8,-,N/A,Fog-Rain,Light Rain,200,2013-07-05 11:52:00
3:55 AM,40.8,41.4,100,29.85,0.2,SSW,12.7,-,0.00,Fog,Light Drizzle,200,2013-07-05 11:55:00
4:55 AM,40.8,41.4,100,29.85,0.2,SSW,12.7,-,N/A,Fog-Rain,Light Rain,200,2013-07-05 12:55:00
5:55 AM,41.0,41.5,100,29.85,0.5,South,12.7,-,0.00,Fog-Rain,Light Rain,190,2013-07-05 13:55:00
6:07 AM,41.0,41.0,100,29.85,1.0,South,13.8,-,N/A,Fog-Rain,Light Rain,190,2013-07-05 14:07:00
6:22 AM,41.0,41.0,100,29.85,4.0,South,12.7,-,N/A,Rain,Light Rain,190,2013-07-05 14:22:00
6:55 AM,41.2,41.7,100,29.84,7.0,South,13.8,-,0.02,Rain,Light Rain,190,2013-07-05 14:55:00
7:07 AM,41.0,41.0,100,29.85,6.0,South,13.8,-,N/A,Rain,Light Rain,190,2013-07-05 15:07:00
7:55 AM,41.2,41.5,100,29.84,8.0,South,12.7,-,0.02,Rain,Light Rain,190,2013-07-05 15:55:00
8:10 AM,41.0,41.0,100,29.84,10.0,SSW,11.5,-,N/A,,Light Drizzle,200,2013-07-05 16:10:00
8:20 AM,41.0,41.0,100,29.85,9.0,SSW,11.5,-,N/A,,Light Drizzle,200,2013-07-05 16:20:00
8:55 AM,41.0,41.0,100,29.85,10.0,SSW,12.7,-,N/A,,Light Drizzle,200,2013-07-05 16:55:00
9:26 AM,42.8,41.0,93,29.85,10.0,SSW,10.4,-,N/A,,Light Drizzle,200,2013-07-05 17:26:00
9:43 AM,42.8,42.8,100,29.85,10.0,SSW,10.4,-,N/A,,Light Drizzle,200,2013-07-05 17:43:00
9:55 AM,42.8,42.8,100,29.85,10.0,SSW,11.5,-,N/A,,Light Drizzle,200,2013-07-05 17:55:00
10:42 AM,42.8,42.8,100,29.84,10.0,SW,12.7,-,N/A,Rain,Light Rain,220,2013-07-05 18:42:00
10:55 AM,43.3,42.6,97,29.85,10.0,SSW,15.0,-,0.02,Rain,Light Rain,200,2013-07-05 18:55:00
11:27 AM,42.8,42.8,100,29.85,10.0,SSW,16.1,-,N/A,Rain,Light Rain,200,2013-07-05 19:27:00
11:55 AM,43.0,42.3,97,29.85,9.0,South,17.3,-,0.02,Rain,Light Rain,190,2013-07-05 19:55:00
12:27 PM,42.8,42.8,100,29.85,10.0,SSW,15.0,-,N/A,Rain,Light Rain,200,2013-07-05 20:27:00
12:55 PM,43.9,43.3,98,29.85,10.0,South,15.0,-,0.02,Rain,Light Rain,190,2013-07-05 20:55:00
1:55 PM,43.7,43.5,99,29.85,10.0,SSW,12.7,-,N/A,,Light Drizzle,200,2013-07-05 21:55:00
2:42 PM,44.6,42.8,93,29.84,10.0,SSW,13.8,-,N/A,Rain,Light Rain,200,2013-07-05 22:42:00
2:55 PM,43.9,43.5,99,29.84,10.0,SSW,11.5,-,0.00,Rain,Light Rain,200,2013-07-05 22:55:00
3:55 PM,44.1,43.5,98,29.84,9.0,SSW,11.5,-,N/A,Rain,Light Rain,200,2013-07-05 23:55:00
4:27 PM,44.6,44.6,100,29.83,3.0,SSW,12.7,-,N/A,,Light Drizzle,200,2013-07-06 00:27:00
4:42 PM,44.6,44.6,100,29.83,2.0,SSW,10.4,-,N/A,,Light Drizzle,200,2013-07-06 00:42:00
4:55 PM,44.1,43.7,99,29.83,2.0,SSW,12.7,-,0.00,,Light Drizzle,200,2013-07-06 00:55:00
4:57 PM,44.6,44.6,100,29.83,1.8,SSW,9.2,-,N/A,,Light Drizzle,200,2013-07-06 00:57:00
5:12 PM,44.6,42.8,93,29.82,4.0,SSW,15.0,-,N/A,,Light Drizzle,200,2013-07-06 01:12:00
5:27 PM,44.6,42.8,93,29.82,2.0,South,11.5,-,N/A,Rain,Light Rain,190,2013-07-06 01:27:00
5:42 PM,44.6,42.8,93,29.82,3.0,South,11.5,-,N/A,,Light Drizzle,190,2013-07-06 01:42:00
5:55 PM,43.9,42.8,96,29.82,4.0,South,11.5,-,N/A,Rain,Light Rain,190,2013-07-06 01:55:00
6:27 PM,42.8,42.8,100,29.81,5.0,South,11.5,-,N/A,Rain,Light Rain,190,2013-07-06 02:27:00
6:55 PM,43.7,42.8,97,29.81,10.0,SSW,9.2,-,0.00,Rain,Light Rain,200,2013-07-06 02:55:00
7:12 PM,44.6,42.8,93,29.81,10.0,SSW,10.4,-,N/A,Rain,Light Rain,200,2013-07-06 03:12:00
7:27 PM,44.6,42.8,93,29.81,10.0,SSW,11.5,-,N/A,Rain,Light Rain,200,2013-07-06 03:27:00
7:55 PM,43.3,41.9,95,29.81,10.0,South,12.7,-,0.02,Rain,Light Rain,190,2013-07-06 03:55:00
8:55 PM,43.7,42.3,95,29.80,10.0,South,8.1,-,0.02,Rain,Light Rain,180,2013-07-06 04:55:00
9:55 PM,44.2,42.6,94,29.79,10.0,SSE,8.1,-,0.02,Rain,Light Rain,160,2013-07-06 05:55:00
10:12 PM,44.6,42.8,93,29.79,10.0,SE,9.2,-,N/A,Rain,Light Rain,140,2013-07-06 06:12:00
10:27 PM,44.6,42.8,93,29.79,10.0,SE,8.1,-,N/A,Rain,Light Rain,140,2013-07-06 06:27:00
10:55 PM,44.2,42.8,95,29.79,10.0,SSE,5.8,-,0.00,Rain,Light Rain,160,2013-07-06 06:55:00
11:55 PM,44.8,42.8,93,29.79,10.0,SE,6.9,-,N/A,Rain,Light Rain Showers,130,2013-07-06 07:55:00